Time,TemperatureF,DewpointF,PressureIn,WindDirection,WindDirectionDegrees,WindSpeedMPH,WindSpeedGustMPH,Humidity,HourlyPrecipIn,Conditions,Clouds,dailyrainin,SoftwareType,DateUTC
2013-07-31 00:11:00,70.0,68.0,28.87,NNE,24,0.0,-999.0,94,39.48,,,-99.99,,2013-07-31 05:11:00,
2013-07-31 00:22:00,70.0,68.0,28.87,NNE,24,0.0,-999.0,94,39.48,,,-99.99,,2013-07-31 05:22:00,
2013-07-31 00:32:00,70.0,68.0,28.86,NNE,24,0.0,-999.0,94,39.48,,,-99.99,,2013-07-31 05:32:00,
2013-07-31 00:42:00,70.0,68.0,28.86,NNE,24,0.0,-999.0,94,39.48,,,-99.99,,2013-07-31 05:42:00,
2013-07-31 00:52:00,69.0,68.0,28.86,NNE,24,0.0,-999.0,96,39.48,,,-99.99,,2013-07-31 05:52:00,
2013-07-31 01:02:00,69.0,68.0,28.86,NNE,24,0.0,-999.0,96,39.48,,,-99.99,,2013-07-31 06:02:00,
2013-07-31 01:12:00,69.0,68.0,28.86,NNE,24,0.0,-999.0,96,39.48,,,-99.99,,2013-07-31 06:12:00,
2013-07-31 01:22:00,68.0,67.0,28.87,NNE,24,0.0,-999.0,96,39.48,,,-99.99,,2013-07-31 06:22:00,
2013-07-31 01:32:00,67.0,66.0,28.87,NNE,24,0.0,-999.0,97,39.48,,,-99.99,,2013-07-31 06:32:00,
2013-07-31 01:43:00,67.0,66.0,28.87,NNE,24,0.0,-999.0,97,39.48,,,-99.99,,2013-07-31 06:43:00,
2013-07-31 01:53:00,67.0,66.0,28.86,NNE,24,0.0,-999.0,97,39.48,,,-99.99,,2013-07-31 06:53:00,
2013-07-31 02:02:00,67.0,66.0,28.86,NNE,24,0.0,-999.0,97,39.48,,,-99.99,,2013-07-31 07:02:00,
2013-07-31 02:12:00,67.0,66.0,28.86,NNE,24,0.0,-999.0,97,39.48,,,-99.99,,2013-07-31 07:12:00,
2013-07-31 02:22:00,65.0,64.0,28.86,NNE,24,0.0,-999.0,98,39.48,,,-99.99,,2013-07-31 07:22:00,
2013-07-31 02:32:00,65.0,64.0,28.87,NNE,24,0.0,-999.0,98,39.48,,,-99.99,,2013-07-31 07:32:00,
2013-07-31 02:43:00,65.0,64.0,28.87,NNE,24,0.0,-999.0,98,39.48,,,-99.99,,2013-07-31 07:43:00,
2013-07-31 02:52:00,65.0,64.0,28.87,NNE,24,0.0,-999.0,98,39.48,,,-99.99,,2013-07-31 07:52:00,
2013-07-31 03:02:00,65.0,64.0,28.87,NNE,24,0.0,-999.0,98,39.48,,,-99.99,,2013-07-31 08:02:00,
2013-07-31 03:12:00,65.0,64.0,28.87,NNE,24,0.0,-999.0,98,39.48,,,-99.99,,2013-07-31 08:12:00,
2013-07-31 03:22:00,65.0,64.0,28.87,NNE,24,0.0,-999.0,98,39.48,,,-99.99,,2013-07-31 08:22:00,
2013-07-31 03:32:00,65.0,65.0,28.88,NNE,24,0.0,-999.0,99,39.48,,,-99.99,,2013-07-31 08:32:00,
2013-07-31 03:42:00,65.0,65.0,28.88,NNE,24,0.0,-999.0,99,39.48,,,-99.99,,2013-07-31 08:42:00,
2013-07-31 03:53:00,65.0,65.0,28.87,NNE,24,0.0,-999.0,99,39.48,,,-99.99,,2013-07-31 08:53:00,
2013-07-31 04:02:00,65.0,65.0,28.87,NNE,24,0.0,-999.0,99,39.48,,,-99.99,,2013-07-31 09:02:00,
2013-07-31 04:12:00,65.0,65.0,28.87,NNE,24,0.0,-999.0,99,39.48,,,-99.99,,2013-07-31 09:12:00,
2013-07-31 04:22:00,64.0,64.0,28.88,NNE,24,0.0,-999.0,99,39.48,,,-99.99,,2013-07-31 09:22:00,
2013-07-31 04:44:00,64.0,64.0,28.88,NNE,24,0.0,-999.0,99,39.48,,,-99.99,,2013-07-31 09:44:00,
2013-07-31 04:52:00,64.0,64.0,28.88,NNE,24,0.0,-999.0,99,39.48,,,-99.99,,2013-07-31 09:52:00,
2013-07-31 05:02:00,64.0,64.0,28.88,NNE,24,0.0,-999.0,99,39.48,,,-99.99,,2013-07-31 10:02:00,
2013-07-31 05:12:00,64.0,64.0,28.88,NNE,24,0.0,-999.0,99,39.48,,,-99.99,,2013-07-31 10:12:00,
2013-07-31 05:22:00,64.0,64.0,28.88,NNE,24,0.0,-999.0,99,39.48,,,-99.99,,2013-07-31 10:22:00,
2013-07-31 05:32:00,64.0,64.0,28.87,SE,131,0.0,-999.0,99,39.48,,,-99.99,,2013-07-31 10:32:00,
2013-07-31 05:44:00,64.0,64.0,28.87,SE,131,0.0,-999.0,99,39.48,,,-99.99,,2013-07-31 10:44:00,
2013-07-31 05:52:00,64.0,64.0,28.85,ESE,115,0.0,-999.0,99,39.48,,,-99.99,,2013-07-31 10:52:00,
2013-07-31 06:03:00,64.0,64.0,28.85,ESE,115,0.0,-999.0,99,39.48,,,-99.99,,2013-07-31 11:03:00,
2013-07-31 06:12:00,64.0,64.0,28.85,ESE,115,0.0,-999.0,99,39.48,,,-99.99,,2013-07-31 11:12:00,
2013-07-31 06:22:00,63.0,63.0,28.87,ESE,115,0.0,-999.0,100,39.48,,,-99.99,,2013-07-31 11:22:00,
2013-07-31 06:33:00,63.0,63.0,28.88,ESE,115,0.0,-999.0,99,39.48,,,-99.99,,2013-07-31 11:33:00,
2013-07-31 06:43:00,63.0,63.0,28.88,ESE,115,0.0,-999.0,99,39.48,,,-99.99,,2013-07-31 11:43:00,
2013-07-31 06:53:00,61.0,61.0,28.90,NW,325,0.0,-999.0,100,39.48,,,-99.99,,2013-07-31 11:53:00,
2013-07-31 07:02:00,61.0,61.0,28.90,NW,325,0.0,-999.0,100,39.48,,,-99.99,,2013-07-31 12:02:00,
2013-07-31 07:12:00,61.0,61.0,28.90,NW,325,0.0,-999.0,100,39.48,,,-99.99,,2013-07-31 12:12:00,
2013-07-31 07:22:00,61.0,61.0,28.90,NW,325,0.0,-999.0,100,39.48,,,-99.99,,2013-07-31 12:22:00,
2013-07-31 07:32:00,61.0,61.0,28.90,NW,325,0.0,-999.0,100,39.48,,,-99.99,,2013-07-31 12:32:00,
2013-07-31 07:43:00,61.0,61.0,28.90,NW,325,0.0,-999.0,100,39.48,,,-99.99,,2013-07-31 12:43:00,
2013-07-31 07:53:00,62.0,62.0,28.91,NW,325,0.0,-999.0,100,39.48,,,-99.99,,2013-07-31 12:53:00,
2013-07-31 08:02:00,62.0,62.0,28.91,NW,325,0.0,-999.0,100,39.48,,,-99.99,,2013-07-31 13:02:00,
2013-07-31 08:12:00,62.0,62.0,28.91,NW,325,0.0,-999.0,100,39.48,,,-99.99,,2013-07-31 13:12:00,
2013-07-31 08:22:00,64.0,64.0,28.92,NW,325,0.0,-999.0,100,39.48,,,-99.99,,2013-07-31 13:22:00,
2013-07-31 08:43:00,65.0,65.0,28.92,NW,325,0.0,-999.0,100,39.48,,,-99.99,,2013-07-31 13:43:00,
2013-07-31 08:53:00,66.0,66.0,28.92,NW,325,0.0,-999.0,99,39.48,,,-99.99,,2013-07-31 13:53:00,
2013-07-31 09:02:00,66.0,66.0,28.92,NW,325,0.0,-999.0,99,39.48,,,-99.99,,2013-07-31 14:02:00,
2013-07-31 09:12:00,66.0,66.0,28.92,NW,325,0.0,-999.0,99,39.48,,,-99.99,,2013-07-31 14:12:00,
2013-07-31 09:22:00,67.0,67.0,28.92,NW,325,0.0,-999.0,99,39.48,,,-99.99,,2013-07-31 14:22:00,
2013-07-31 09:34:00,68.0,67.0,28.92,NW,325,0.0,-999.0,98,39.48,,,-99.99,,2013-07-31 14:34:00,
2013-07-31 09:43:00,68.0,67.0,28.92,NW,325,0.0,-999.0,98,39.48,,,-99.99,,2013-07-31 14:43:00,
2013-07-31 09:53:00,69.0,68.0,28.92,NW,325,0.0,-999.0,98,39.48,,,-99.99,,2013-07-31 14:53:00,
2013-07-31 10:02:00,69.0,68.0,28.92,NW,325,0.0,-999.0,98,39.48,,,-99.99,,2013-07-31 15:02:00,
2013-07-31 10:12:00,69.0,68.0,28.92,NW,325,0.0,-999.0,98,39.48,,,-99.99,,2013-07-31 15:12:00,
2013-07-31 10:22:00,72.0,70.0,28.92,NW,325,0.0,-999.0,94,39.48,,,-99.99,,2013-07-31 15:22:00,
2013-07-31 10:33:00,72.0,70.0,28.91,NW,325,0.0,-999.0,92,39.48,,,-99.99,,2013-07-31 15:33:00,
2013-07-31 10:44:00,72.0,70.0,28.91,NW,325,0.0,-999.0,92,39.48,,,-99.99,,2013-07-31 15:44:00,
2013-07-31 10:53:00,74.0,71.0,28.91,NW,325,0.0,-999.0,90,39.48,,,-99.99,,2013-07-31 15:53:00,
2013-07-31 11:02:00,74.0,71.0,28.91,NW,325,0.0,-999.0,90,39.48,,,-99.99,,2013-07-31 16:02:00,
2013-07-31 11:12:00,74.0,71.0,28.91,NW,325,0.0,-999.0,90,39.48,,,-99.99,,2013-07-31 16:12:00,
2013-07-31 11:22:00,75.0,71.0,28.90,South,180,5.0,-999.0,86,39.48,,,-99.99,,2013-07-31 16:22:00,
2013-07-31 11:33:00,75.0,71.0,28.91,SW,219,0.0,-999.0,86,39.48,,,-99.99,,2013-07-31 16:33:00,
2013-07-31 11:44:00,75.0,71.0,28.91,SW,219,0.0,-999.0,86,39.48,,,-99.99,,2013-07-31 16:44:00,
2013-07-31 11:52:00,76.0,70.0,28.91,SW,233,0.0,-999.0,83,39.48,,,-99.99,,2013-07-31 16:52:00,
2013-07-31 12:02:00,76.0,70.0,28.91,SW,233,0.0,-999.0,83,39.48,,,-99.99,,2013-07-31 17:02:00,
2013-07-31 12:13:00,76.0,70.0,28.91,SW,233,0.0,-999.0,83,39.48,,,-99.99,,2013-07-31 17:13:00,
2013-07-31 12:22:00,77.0,71.0,28.91,NNW,330,4.0,-999.0,82,39.48,,,-99.99,,2013-07-31 17:22:00,
2013-07-31 12:33:00,77.0,71.0,28.90,WSW,249,0.0,-999.0,82,39.48,,,-99.99,,2013-07-31 17:33:00,
2013-07-31 12:43:00,77.0,71.0,28.90,WSW,249,0.0,-999.0,82,39.48,,,-99.99,,2013-07-31 17:43:00,
2013-07-31 13:02:00,78.0,72.0,28.90,ENE,63,0.0,-999.0,82,39.48,,,-99.99,,2013-07-31 18:02:00,
2013-07-31 13:12:00,78.0,72.0,28.90,ENE,63,0.0,-999.0,82,39.48,,,-99.99,,2013-07-31 18:12:00,
2013-07-31 13:22:00,78.0,72.0,28.90,North,1,0.0,-999.0,81,39.48,,,-99.99,,2013-07-31 18:22:00,
2013-07-31 13:32:00,78.0,71.0,28.90,NNW,342,0.0,-999.0,80,39.48,,,-99.99,,2013-07-31 18:32:00,
2013-07-31 13:43:00,78.0,71.0,28.90,NNW,342,0.0,-999.0,80,39.48,,,-99.99,,2013-07-31 18:43:00,
2013-07-31 13:52:00,79.0,72.0,28.89,NE,49,0.0,-999.0,78,39.48,,,-99.99,,2013-07-31 18:52:00,
2013-07-31 14:02:00,79.0,72.0,28.89,NE,49,0.0,-999.0,78,39.48,,,-99.99,,2013-07-31 19:02:00,
2013-07-31 14:12:00,79.0,72.0,28.89,NE,49,0.0,-999.0,78,39.48,,,-99.99,,2013-07-31 19:12:00,
2013-07-31 14:22:00,79.0,72.0,28.89,East,84,0.0,-999.0,78,39.48,,,-99.99,,2013-07-31 19:22:00,
2013-07-31 14:32:00,79.0,72.0,28.89,East,84,0.0,-999.0,78,39.48,,,-99.99,,2013-07-31 19:32:00,
2013-07-31 14:43:00,79.0,72.0,28.89,East,84,0.0,-999.0,78,39.48,,,-99.99,,2013-07-31 19:43:00,
2013-07-31 14:53:00,81.0,72.0,28.89,West,267,0.0,-999.0,75,39.48,,,-99.99,,2013-07-31 19:53:00,
2013-07-31 15:02:00,81.0,72.0,28.89,West,267,0.0,-999.0,75,39.48,,,-99.99,,2013-07-31 20:02:00,
2013-07-31 15:12:00,81.0,72.0,28.89,West,267,0.0,-999.0,75,39.48,,,-99.99,,2013-07-31 20:12:00,
2013-07-31 15:22:00,81.0,72.0,28.88,WSW,256,5.0,-999.0,75,39.48,,,-99.99,,2013-07-31 20:22:00,
2013-07-31 15:32:00,81.0,72.0,28.88,SW,226,0.0,-999.0,74,39.48,,,-99.99,,2013-07-31 20:32:00,
2013-07-31 15:43:00,81.0,72.0,28.88,SW,226,0.0,-999.0,74,39.48,,,-99.99,,2013-07-31 20:43:00,
2013-07-31 15:53:00,81.0,72.0,28.87,SSE,167,0.0,-999.0,74,39.48,,,-99.99,,2013-07-31 20:53:00,
2013-07-31 16:02:00,81.0,72.0,28.87,SSE,167,0.0,-999.0,74,39.48,,,-99.99,,2013-07-31 21:02:00,
2013-07-31 16:12:00,81.0,72.0,28.87,SSE,167,0.0,-999.0,74,39.48,,,-99.99,,2013-07-31 21:12:00,
2013-07-31 16:22:00,82.0,72.0,28.86,SE,135,0.0,-999.0,72,39.48,,,-99.99,,2013-07-31 21:22:00,
2013-07-31 16:32:00,82.0,72.0,28.86,West,273,0.0,-999.0,72,39.48,,,-99.99,,2013-07-31 21:32:00,
2013-07-31 16:43:00,82.0,72.0,28.86,West,273,0.0,-999.0,72,39.48,,,-99.99,,2013-07-31 21:43:00,
2013-07-31 16:53:00,83.0,73.0,28.85,WNW,290,0.0,-999.0,71,39.48,,,-99.99,,2013-07-31 21:53:00,
2013-07-31 17:02:00,83.0,73.0,28.85,WNW,290,0.0,-999.0,71,39.48,,,-99.99,,2013-07-31 22:02:00,
2013-07-31 17:12:00,83.0,73.0,28.85,WNW,290,0.0,-999.0,71,39.48,,,-99.99,,2013-07-31 22:12:00,
2013-07-31 17:22:00,83.0,73.0,28.85,North,350,0.0,-999.0,71,39.48,,,-99.99,,2013-07-31 22:22:00,
2013-07-31 17:33:00,83.0,73.0,28.84,West,262,5.0,-999.0,72,39.48,,,-99.99,,2013-07-31 22:33:00,
2013-07-31 17:43:00,83.0,73.0,28.84,West,262,5.0,-999.0,72,39.48,,,-99.99,,2013-07-31 22:43:00,
2013-07-31 17:53:00,83.0,73.0,28.84,WNW,290,0.0,-999.0,72,39.48,,,-99.99,,2013-07-31 22:53:00,
2013-07-31 18:02:00,83.0,73.0,28.84,WNW,290,0.0,-999.0,72,39.48,,,-99.99,,2013-07-31 23:02:00,
2013-07-31 18:11:00,83.0,73.0,28.84,WNW,290,0.0,-999.0,72,39.48,,,-99.99,,2013-07-31 23:11:00,
2013-07-31 18:22:00,82.0,72.0,28.84,NW,325,3.0,-999.0,72,39.48,,,-99.99,,2013-07-31 23:22:00,
2013-07-31 18:32:00,83.0,73.0,28.83,NW,325,0.0,-999.0,71,39.48,,,-99.99,,2013-07-31 23:32:00,
2013-07-31 18:42:00,83.0,73.0,28.83,NW,325,0.0,-999.0,71,39.48,,,-99.99,,2013-07-31 23:42:00,
2013-07-31 18:52:00,83.0,73.0,28.83,West,281,0.0,-999.0,71,39.48,,,-99.99,,2013-07-31 23:52:00,
2013-07-31 19:02:00,83.0,73.0,28.83,West,281,0.0,-999.0,71,39.48,,,-99.99,,2013-08-01 00:02:00,
2013-07-31 19:12:00,83.0,73.0,28.83,West,281,0.0,-999.0,71,39.48,,,-99.99,,2013-08-01 00:12:00,
2013-07-31 19:22:00,82.0,72.0,28.82,West,281,0.0,-999.0,71,39.48,,,-99.99,,2013-08-01 00:22:00,
2013-07-31 19:32:00,83.0,73.0,28.83,West,281,0.0,-999.0,72,39.48,,,-99.99,,2013-08-01 00:32:00,
2013-07-31 19:43:00,83.0,73.0,28.83,West,281,0.0,-999.0,72,39.48,,,-99.99,,2013-08-01 00:43:00,
2013-07-31 19:52:00,83.0,72.0,28.83,West,281,0.0,-999.0,70,39.48,,,-99.99,,2013-08-01 00:52:00,
2013-07-31 20:02:00,83.0,72.0,28.83,West,281,0.0,-999.0,70,39.48,,,-99.99,,2013-08-01 01:02:00,
2013-07-31 20:12:00,83.0,72.0,28.83,West,281,0.0,-999.0,70,39.48,,,-99.99,,2013-08-01 01:12:00,
2013-07-31 20:22:00,82.0,72.0,28.84,West,281,0.0,-999.0,73,39.48,,,-99.99,,2013-08-01 01:22:00,
2013-07-31 20:32:00,81.0,72.0,28.84,West,281,0.0,-999.0,74,39.48,,,-99.99,,2013-08-01 01:32:00,
2013-07-31 20:43:00,81.0,72.0,28.84,West,281,0.0,-999.0,74,39.48,,,-99.99,,2013-08-01 01:43:00,
2013-07-31 20:53:00,80.0,72.0,28.83,West,281,0.0,-999.0,78,39.48,,,-99.99,,2013-08-01 01:53:00,
2013-07-31 21:02:00,80.0,72.0,28.83,West,281,0.0,-999.0,78,39.48,,,-99.99,,2013-08-01 02:02:00,
2013-07-31 21:12:00,80.0,72.0,28.83,West,281,0.0,-999.0,78,39.48,,,-99.99,,2013-08-01 02:12:00,
2013-07-31 21:22:00,77.0,72.0,28.84,West,281,0.0,-999.0,85,39.48,,,-99.99,,2013-08-01 02:22:00,
2013-07-31 21:32:00,77.0,72.0,28.84,West,281,0.0,-999.0,86,39.48,,,-99.99,,2013-08-01 02:32:00,
2013-07-31 21:43:00,77.0,72.0,28.84,West,281,0.0,-999.0,86,39.48,,,-99.99,,2013-08-01 02:43:00,
2013-07-31 21:53:00,76.0,72.0,28.85,West,281,0.0,-999.0,86,39.48,,,-99.99,,2013-08-01 02:53:00,
2013-07-31 22:02:00,76.0,72.0,28.85,West,281,0.0,-999.0,86,39.48,,,-99.99,,2013-08-01 03:02:00,
2013-07-31 22:12:00,76.0,72.0,28.85,West,281,0.0,-999.0,86,39.48,,,-99.99,,2013-08-01 03:12:00,
2013-07-31 22:22:00,75.0,71.0,28.86,West,281,0.0,-999.0,87,39.48,,,-99.99,,2013-08-01 03:22:00,
2013-07-31 22:32:00,75.0,71.0,28.86,West,281,0.0,-999.0,88,39.48,,,-99.99,,2013-08-01 03:32:00,
2013-07-31 22:43:00,75.0,71.0,28.86,West,281,0.0,-999.0,88,39.48,,,-99.99,,2013-08-01 03:43:00,
2013-07-31 22:53:00,74.0,71.0,28.87,West,281,0.0,-999.0,90,39.48,,,-99.99,,2013-08-01 03:53:00,
2013-07-31 23:02:00,74.0,71.0,28.87,West,281,0.0,-999.0,90,39.48,,,-99.99,,2013-08-01 04:02:00,
2013-07-31 23:12:00,74.0,71.0,28.87,West,281,0.0,-999.0,90,39.48,,,-99.99,,2013-08-01 04:12:00,
2013-07-31 23:22:00,73.0,70.0,28.87,West,281,0.0,-999.0,91,39.48,,,-99.99,,2013-08-01 04:22:00,
2013-07-31 23:33:00,72.0,70.0,28.88,West,281,0.0,-999.0,92,39.48,,,-99.99,,2013-08-01 04:33:00,
2013-07-31 23:43:00,72.0,70.0,28.88,West,281,0.0,-999.0,92,39.48,,,-99.99,,2013-08-01 04:43:00,
2013-07-31 23:53:00,72.0,70.0,28.88,West,281,0.0,-999.0,93,39.48,,,-99.99,,2013-08-01 04:53:00,